owner,sensor,date,latitude,longitude,vertical_datum,sea_water_temperature,qcFlag 
SCCF RECON,ioos:station:SCCF:11:1,2011-03-04T20:00:00Z,26.4679,-82.0631,1.74,21.99,2 
SCCF RECON,ioos:station:SCCF:11:1,2011-03-04T21:00:00Z,26.4679,-82.0631,1.74,22.24,2 
SCCF RECON,ioos:station:SCCF:11:1,2011-03-04T22:00:00Z,26.4679,-82.0631,1.74,22.26,2 
SCCF RECON,ioos:station:SCCF:11:1,2011-03-04T23:00:00Z,26.4679,-82.0631,1.74,22.43,2 
SCCF RECON,ioos:station:SCCF:11:1,2011-03-05T00:00:00Z,26.4679,-82.0631,1.74,22.21,2 
SCCF RECON,ioos:station:SCCF:11:1,2011-03-05T01:00:00Z,26.4679,-82.0631,1.74,22.08,2 
SCCF RECON,ioos:station:SCCF:11:1,2011-03-05T02:00:00Z,26.4679,-82.0631,1.74,21.99,2 
SCCF RECON,ioos:station:SCCF:11:1,2011-03-05T03:00:00Z,26.4679,-82.0631,1.74,21.64,2 
SCCF RECON,ioos:station:SCCF:11:1,2011-03-05T04:00:00Z,26.4679,-82.0631,1.74,21.42,2 
SCCF RECON,ioos:station:SCCF:11:1,2011-03-05T05:00:00Z,26.4679,-82.0631,1.74,21.41,2 
SCCF RECON,ioos:station:SCCF:11:1,2011-03-05T06:00:00Z,26.4679,-82.0631,1.74,21.46,2 
SCCF RECON,ioos:station:SCCF:11:1,2011-03-05T07:00:00Z,26.4679,-82.0631,1.74,21.44,2 
SCCF RECON,ioos:station:SCCF:11:1,2011-03-05T08:00:00Z,26.4679,-82.0631,1.74,21.33,2 
SCCF RECON,ioos:station:SCCF:11:1,2011-03-05T09:00:00Z,26.4679,-82.0631,1.74,21.15,2 
SCCF RECON,ioos:station:SCCF:11:1,2011-03-05T10:00:00Z,26.4679,-82.0631,1.74,21.03,2 
SCCF RECON,ioos:station:SCCF:11:1,2011-03-05T11:00:00Z,26.4679,-82.0631,1.74,21.01,2 
SCCF RECON,ioos:station:SCCF:11:1,2011-03-05T12:00:00Z,26.4679,-82.0631,1.74,20.83,2 
SCCF RECON,ioos:station:SCCF:11:1,2011-03-05T13:00:00Z,26.4679,-82.0631,1.74,20.76,2 
SCCF RECON,ioos:station:SCCF:11:1,2011-03-05T14:00:00Z,26.4679,-82.0631,1.74,20.64,2 
SCCF RECON,ioos:station:SCCF:11:1,2011-03-05T15:00:00Z,26.4679,-82.0631,1.74,21.04,2 
SCCF RECON,ioos:station:SCCF:11:1,2011-03-05T16:00:00Z,26.4679,-82.0631,1.74,21.3,2 
SCCF RECON,ioos:station:SCCF:11:1,2011-03-05T17:00:00Z,26.4679,-82.0631,1.74,21.5,2 
SCCF RECON,ioos:station:SCCF:11:1,2011-03-05T18:00:00Z,26.4679,-82.0631,1.74,21.87,2 
SCCF RECON,ioos:station:SCCF:11:1,2011-03-05T19:00:00Z,26.4679,-82.0631,1.74,21.86,2 
SCCF RECON,ioos:station:SCCF:11:1,2011-03-05T20:00:00Z,26.4679,-82.0631,1.74,22.44,2 
SCCF RECON,ioos:station:SCCF:11:1,2011-03-05T21:00:00Z,26.4679,-82.0631,1.74,22.68,2 
SCCF RECON,ioos:station:SCCF:11:1,2011-03-05T22:00:00Z,26.4679,-82.0631,1.74,22.89,2 
SCCF RECON,ioos:station:SCCF:11:1,2011-03-05T23:00:00Z,26.4679,-82.0631,1.74,22.65,2 
SCCF RECON,ioos:station:SCCF:11:1,2011-03-06T00:00:00Z,26.4679,-82.0631,1.74,22.57,2 
SCCF RECON,ioos:station:SCCF:11:1,2011-03-06T01:00:00Z,26.4679,-82.0631,1.74,22.56,2 
SCCF RECON,ioos:station:SCCF:11:1,2011-03-06T02:00:00Z,26.4679,-82.0631,1.74,22.51,2 
SCCF RECON,ioos:station:SCCF:11:1,2011-03-06T03:00:00Z,26.4679,-82.0631,1.74,22.36,2 
SCCF RECON,ioos:station:SCCF:11:1,2011-03-06T04:00:00Z,26.4679,-82.0631,1.74,22.07,2 
SCCF RECON,ioos:station:SCCF:11:1,2011-03-06T05:00:00Z,26.4679,-82.0631,1.74,21.9,2 
SCCF RECON,ioos:station:SCCF:11:1,2011-03-06T06:00:00Z,26.4679,-82.0631,1.74,21.84,2 
SCCF RECON,ioos:station:SCCF:11:1,2011-03-06T07:00:00Z,26.4679,-82.0631,1.74,21.89,2 
SCCF RECON,ioos:station:SCCF:11:1,2011-03-06T08:00:00Z,26.4679,-82.0631,1.74,21.85,2 
SCCF RECON,ioos:station:SCCF:11:1,2011-03-06T09:00:00Z,26.4679,-82.0631,1.74,21.87,2 
SCCF RECON,ioos:station:SCCF:11:1,2011-03-06T10:00:00Z,26.4679,-82.0631,1.74,21.89,2 
SCCF RECON,ioos:station:SCCF:11:1,2011-03-06T11:00:00Z,26.4679,-82.0631,1.74,21.85,2 
SCCF RECON,ioos:station:SCCF:11:1,2011-03-06T12:00:00Z,26.4679,-82.0631,1.74,21.77,2 
SCCF RECON,ioos:station:SCCF:11:1,2011-03-06T13:00:00Z,26.4679,-82.0631,1.74,21.76,2 
SCCF RECON,ioos:station:SCCF:11:1,2011-03-06T14:00:00Z,26.4679,-82.0631,1.74,21.73,2 
SCCF RECON,ioos:station:SCCF:11:1,2011-03-06T15:00:00Z,26.4679,-82.0631,1.74,21.63,2 
SCCF RECON,ioos:station:SCCF:11:1,2011-03-06T16:00:00Z,26.4679,-82.0631,1.74,21.92,2 
SCCF RECON,ioos:station:SCCF:11:1,2011-03-06T17:00:00Z,26.4679,-82.0631,1.74,22.0,2 
SCCF RECON,ioos:station:SCCF:11:1,2011-03-06T18:00:00Z,26.4679,-82.0631,1.74,22.17,2 
SCCF RECON,ioos:station:SCCF:11:1,2011-03-06T19:00:00Z,26.4679,-82.0631,1.74,22.23,2 
SCCF RECON,ioos:station:SCCF:11:1,2011-03-06T20:00:00Z,26.4679,-82.0631,1.74,22.26,2 
SCCF RECON,ioos:station:SCCF:11:1,2011-03-06T21:00:00Z,26.4679,-82.0631,1.74,22.57,2 
SCCF RECON,ioos:station:SCCF:11:1,2011-03-06T22:00:00Z,26.4679,-82.0631,1.74,22.73,2 
SCCF RECON,ioos:station:SCCF:11:1,2011-03-06T23:00:00Z,26.4679,-82.0631,1.74,22.79,2 
SCCF RECON,ioos:station:SCCF:11:1,2011-03-07T00:00:00Z,26.4679,-82.0631,1.74,22.69,2 
SCCF RECON,ioos:station:SCCF:11:1,2011-03-07T01:00:00Z,26.4679,-82.0631,1.74,22.62,2 
SCCF RECON,ioos:station:SCCF:11:1,2011-03-07T02:00:00Z,26.4679,-82.0631,1.74,22.45,2 
SCCF RECON,ioos:station:SCCF:11:1,2011-03-07T03:00:00Z,26.4679,-82.0631,1.74,22.15,2 
SCCF RECON,ioos:station:SCCF:11:1,2011-03-07T04:00:00Z,26.4679,-82.0631,1.74,22.06,2 
SCCF RECON,ioos:station:SCCF:11:1,2011-03-07T05:00:00Z,26.4679,-82.0631,1.74,21.99,2 
SCCF RECON,ioos:station:SCCF:11:1,2011-03-07T06:00:00Z,26.4679,-82.0631,1.74,21.98,2 
SCCF RECON,ioos:station:SCCF:11:1,2011-03-07T07:00:00Z,26.4679,-82.0631,1.74,21.97,2 
SCCF RECON,ioos:station:SCCF:11:1,2011-03-07T08:00:00Z,26.4679,-82.0631,1.74,21.81,2 
SCCF RECON,ioos:station:SCCF:11:1,2011-03-07T09:00:00Z,26.4679,-82.0631,1.74,21.58,2 
SCCF RECON,ioos:station:SCCF:11:1,2011-03-07T10:00:00Z,26.4679,-82.0631,1.74,21.26,2 
SCCF RECON,ioos:station:SCCF:11:1,2011-03-07T11:00:00Z,26.4679,-82.0631,1.74,21.03,2 
SCCF RECON,ioos:station:SCCF:11:1,2011-03-07T12:00:00Z,26.4679,-82.0631,1.74,20.9,2 
SCCF RECON,ioos:station:SCCF:11:1,2011-03-07T13:00:00Z,26.4679,-82.0631,1.74,20.79,2 
SCCF RECON,ioos:station:SCCF:11:1,2011-03-07T14:00:00Z,26.4679,-82.0631,1.74,20.71,2 
SCCF RECON,ioos:station:SCCF:11:1,2011-03-07T15:00:00Z,26.4679,-82.0631,1.74,20.85,2 
SCCF RECON,ioos:station:SCCF:11:1,2011-03-07T16:00:00Z,26.4679,-82.0631,1.74,21.15,2 
SCCF RECON,ioos:station:SCCF:11:1,2011-03-07T17:00:00Z,26.4679,-82.0631,1.74,21.52,2 
SCCF RECON,ioos:station:SCCF:11:1,2011-03-07T18:00:00Z,26.4679,-82.0631,1.74,21.65,2 
SCCF RECON,ioos:station:SCCF:11:1,2011-03-07T19:00:00Z,26.4679,-82.0631,1.74,21.78,2 
SCCF RECON,ioos:station:SCCF:11:1,2011-03-07T20:00:00Z,26.4679,-82.0631,1.74,22.5,2 
SCCF RECON,ioos:station:SCCF:11:1,2011-03-07T21:00:00Z,26.4679,-82.0631,1.74,22.41,2 
SCCF RECON,ioos:station:SCCF:11:1,2011-03-07T22:00:00Z,26.4679,-82.0631,1.74,22.61,2 
SCCF RECON,ioos:station:SCCF:11:1,2011-03-07T23:00:00Z,26.4679,-82.0631,1.74,22.72,2 
SCCF RECON,ioos:station:SCCF:11:1,2011-03-08T00:00:00Z,26.4679,-82.0631,1.74,22.54,2 
SCCF RECON,ioos:station:SCCF:11:1,2011-03-08T01:00:00Z,26.4679,-82.0631,1.74,22.38,2 
SCCF RECON,ioos:station:SCCF:11:1,2011-03-08T02:00:00Z,26.4679,-82.0631,1.74,22.13,2 
SCCF RECON,ioos:station:SCCF:11:1,2011-03-08T03:00:00Z,26.4679,-82.0631,1.74,21.96,2 
SCCF RECON,ioos:station:SCCF:11:1,2011-03-08T04:00:00Z,26.4679,-82.0631,1.74,21.63,2 
SCCF RECON,ioos:station:SCCF:11:1,2011-03-08T05:00:00Z,26.4679,-82.0631,1.74,21.5,2 
SCCF RECON,ioos:station:SCCF:11:1,2011-03-08T06:00:00Z,26.4679,-82.0631,1.74,21.58,2 
SCCF RECON,ioos:station:SCCF:11:1,2011-03-08T07:00:00Z,26.4679,-82.0631,1.74,21.51,2 
SCCF RECON,ioos:station:SCCF:11:1,2011-03-08T08:00:00Z,26.4679,-82.0631,1.74,21.4,2 
SCCF RECON,ioos:station:SCCF:11:1,2011-03-08T09:00:00Z,26.4679,-82.0631,1.74,21.43,2 
SCCF RECON,ioos:station:SCCF:11:1,2011-03-08T10:00:00Z,26.4679,-82.0631,1.74,21.39,2 
SCCF RECON,ioos:station:SCCF:11:1,2011-03-08T11:00:00Z,26.4679,-82.0631,1.74,21.06,2 
SCCF RECON,ioos:station:SCCF:11:1,2011-03-08T12:00:00Z,26.4679,-82.0631,1.74,20.78,2 
SCCF RECON,ioos:station:SCCF:11:1,2011-03-08T13:00:00Z,26.4679,-82.0631,1.74,20.65,2 
SCCF RECON,ioos:station:SCCF:11:1,2011-03-08T14:00:00Z,26.4679,-82.0631,1.74,20.68,2 
SCCF RECON,ioos:station:SCCF:11:1,2011-03-08T15:00:00Z,26.4679,-82.0631,1.74,21.0,2 
SCCF RECON,ioos:station:SCCF:11:1,2011-03-08T16:00:00Z,26.4679,-82.0631,1.74,21.42,2 
SCCF RECON,ioos:station:SCCF:11:1,2011-03-08T17:00:00Z,26.4679,-82.0631,1.74,21.82,2 
SCCF RECON,ioos:station:SCCF:11:1,2011-03-08T18:00:00Z,26.4679,-82.0631,1.74,22.06,2 
SCCF RECON,ioos:station:SCCF:11:1,2011-03-08T19:00:00Z,26.4679,-82.0631,1.74,22.04,2 
SCCF RECON,ioos:station:SCCF:11:1,2011-03-08T20:00:00Z,26.4679,-82.0631,1.74,22.25,2 
SCCF RECON,ioos:station:SCCF:11:1,2011-03-08T21:00:00Z,26.4679,-82.0631,1.74,22.89,2 
SCCF RECON,ioos:station:SCCF:11:1,2011-03-08T22:00:00Z,26.4679,-82.0631,1.74,22.99,2 
SCCF RECON,ioos:station:SCCF:11:1,2011-03-08T23:00:00Z,26.4679,-82.0631,1.74,23.06,2 
SCCF RECON,ioos:station:SCCF:11:1,2011-03-09T00:00:00Z,26.4679,-82.0631,1.74,23.02,2 
SCCF RECON,ioos:station:SCCF:11:1,2011-03-09T01:00:00Z,26.4679,-82.0631,1.74,22.9,2 
SCCF RECON,ioos:station:SCCF:11:1,2011-03-09T02:00:00Z,26.4679,-82.0631,1.74,22.81,2 
SCCF RECON,ioos:station:SCCF:11:1,2011-03-09T03:00:00Z,26.4679,-82.0631,1.74,22.74,2 
SCCF RECON,ioos:station:SCCF:11:1,2011-03-09T04:00:00Z,26.4679,-82.0631,1.74,22.55,2 
SCCF RECON,ioos:station:SCCF:11:1,2011-03-09T05:00:00Z,26.4679,-82.0631,1.74,22.46,2 
SCCF RECON,ioos:station:SCCF:11:1,2011-03-09T06:00:00Z,26.4679,-82.0631,1.74,22.45,2 
SCCF RECON,ioos:station:SCCF:11:1,2011-03-09T07:00:00Z,26.4679,-82.0631,1.74,22.41,2 
SCCF RECON,ioos:station:SCCF:11:1,2011-03-09T08:00:00Z,26.4679,-82.0631,1.74,22.3,2 
SCCF RECON,ioos:station:SCCF:11:1,2011-03-09T09:00:00Z,26.4679,-82.0631,1.74,22.31,2 
SCCF RECON,ioos:station:SCCF:11:1,2011-03-09T10:00:00Z,26.4679,-82.0631,1.74,22.34,2 
SCCF RECON,ioos:station:SCCF:11:1,2011-03-09T11:00:00Z,26.4679,-82.0631,1.74,22.29,2 
SCCF RECON,ioos:station:SCCF:11:1,2011-03-09T12:00:00Z,26.4679,-82.0631,1.74,22.19,2 
SCCF RECON,ioos:station:SCCF:11:1,2011-03-09T13:00:00Z,26.4679,-82.0631,1.74,21.75,2 
SCCF RECON,ioos:station:SCCF:11:1,2011-03-09T14:00:00Z,26.4679,-82.0631,1.74,21.69,2 
SCCF RECON,ioos:station:SCCF:11:1,2011-03-09T15:00:00Z,26.4679,-82.0631,1.74,21.66,2 
SCCF RECON,ioos:station:SCCF:11:1,2011-03-09T16:00:00Z,26.4679,-82.0631,1.74,21.89,2 
SCCF RECON,ioos:station:SCCF:11:1,2011-03-09T17:00:00Z,26.4679,-82.0631,1.74,22.17,2 
SCCF RECON,ioos:station:SCCF:11:1,2011-03-09T18:00:00Z,26.4679,-82.0631,1.74,22.52,2 
SCCF RECON,ioos:station:SCCF:11:1,2011-03-09T19:00:00Z,26.4679,-82.0631,1.74,22.58,2 
SCCF RECON,ioos:station:SCCF:11:1,2011-03-09T20:00:00Z,26.4679,-82.0631,1.74,22.74,2 
SCCF RECON,ioos:station:SCCF:11:1,2011-03-09T21:00:00Z,26.4679,-82.0631,1.74,22.91,2 
SCCF RECON,ioos:station:SCCF:11:1,2011-03-09T22:00:00Z,26.4679,-82.0631,1.74,22.82,2 
SCCF RECON,ioos:station:SCCF:11:1,2011-03-09T23:00:00Z,26.4679,-82.0631,1.74,23.79,2 
SCCF RECON,ioos:station:SCCF:11:1,2011-03-10T00:00:00Z,26.4679,-82.0631,1.74,23.66,2 
SCCF RECON,ioos:station:SCCF:11:1,2011-03-10T01:00:00Z,26.4679,-82.0631,1.74,23.4,2 
SCCF RECON,ioos:station:SCCF:11:1,2011-03-10T02:00:00Z,26.4679,-82.0631,1.74,23.31,2 
SCCF RECON,ioos:station:SCCF:11:1,2011-03-10T03:00:00Z,26.4679,-82.0631,1.74,23.29,2 
SCCF RECON,ioos:station:SCCF:11:1,2011-03-10T04:00:00Z,26.4679,-82.0631,1.74,23.22,2 
SCCF RECON,ioos:station:SCCF:11:1,2011-03-10T05:00:00Z,26.4679,-82.0631,1.74,22.99,2 
SCCF RECON,ioos:station:SCCF:11:1,2011-03-10T06:00:00Z,26.4679,-82.0631,1.74,22.89,2 
SCCF RECON,ioos:station:SCCF:11:1,2011-03-10T07:00:00Z,26.4679,-82.0631,1.74,22.58,2 
SCCF RECON,ioos:station:SCCF:11:1,2011-03-10T08:00:00Z,26.4679,-82.0631,1.74,22.7,2 
SCCF RECON,ioos:station:SCCF:11:1,2011-03-10T09:00:00Z,26.4679,-82.0631,1.74,22.71,2 
SCCF RECON,ioos:station:SCCF:11:1,2011-03-10T10:00:00Z,26.4679,-82.0631,1.74,22.68,2 
SCCF RECON,ioos:station:SCCF:11:1,2011-03-10T11:00:00Z,26.4679,-82.0631,1.74,22.53,2 
SCCF RECON,ioos:station:SCCF:11:1,2011-03-10T12:00:00Z,26.4679,-82.0631,1.74,22.33,2 
SCCF RECON,ioos:station:SCCF:11:1,2011-03-10T13:00:00Z,26.4679,-82.0631,1.74,22.43,2 
SCCF RECON,ioos:station:SCCF:11:1,2011-03-10T14:00:00Z,26.4679,-82.0631,1.74,22.48,2 
SCCF RECON,ioos:station:SCCF:11:1,2011-03-10T15:00:00Z,26.4679,-82.0631,1.74,22.23,2 
SCCF RECON,ioos:station:SCCF:11:1,2011-03-10T16:00:00Z,26.4679,-82.0631,1.74,22.34,2 
SCCF RECON,ioos:station:SCCF:11:1,2011-03-10T17:00:00Z,26.4679,-82.0631,1.74,22.35,2 
SCCF RECON,ioos:station:SCCF:11:1,2011-03-10T18:00:00Z,26.4679,-82.0631,1.74,22.22,2 
SCCF RECON,ioos:station:SCCF:11:1,2011-03-10T19:00:00Z,26.4679,-82.0631,1.74,22.15,2 
SCCF RECON,ioos:station:SCCF:11:1,2011-03-10T20:00:00Z,26.4679,-82.0631,1.74,22.17,2 
SCCF RECON,ioos:station:SCCF:11:1,2011-03-10T21:00:00Z,26.4679,-82.0631,1.74,22.18,2 
SCCF RECON,ioos:station:SCCF:11:1,2011-03-10T22:00:00Z,26.4679,-82.0631,1.74,22.13,2 
SCCF RECON,ioos:station:SCCF:11:1,2011-03-10T23:00:00Z,26.4679,-82.0631,1.74,22.02,2 
SCCF RECON,ioos:station:SCCF:11:1,2011-03-11T00:00:00Z,26.4679,-82.0631,1.74,21.88,2 
SCCF RECON,ioos:station:SCCF:11:1,2011-03-11T01:00:00Z,26.4679,-82.0631,1.74,21.66,2 
SCCF RECON,ioos:station:SCCF:11:1,2011-03-11T02:00:00Z,26.4679,-82.0631,1.74,21.47,2 
SCCF RECON,ioos:station:SCCF:11:1,2011-03-11T03:00:00Z,26.4679,-82.0631,1.74,21.19,2 
SCCF RECON,ioos:station:SCCF:11:1,2011-03-11T04:00:00Z,26.4679,-82.0631,1.74,20.91,2 
SCCF RECON,ioos:station:SCCF:11:1,2011-03-11T05:00:00Z,26.4679,-82.0631,1.74,20.73,2 
SCCF RECON,ioos:station:SCCF:11:1,2011-03-11T06:00:00Z,26.4679,-82.0631,1.74,20.47,2 
SCCF RECON,ioos:station:SCCF:11:1,2011-03-11T07:00:00Z,26.4679,-82.0631,1.74,20.28,2 
SCCF RECON,ioos:station:SCCF:11:1,2011-03-11T08:00:00Z,26.4679,-82.0631,1.74,20.08,2 
SCCF RECON,ioos:station:SCCF:11:1,2011-03-11T09:00:00Z,26.4679,-82.0631,1.74,19.97,2 
SCCF RECON,ioos:station:SCCF:11:1,2011-03-11T10:00:00Z,26.4679,-82.0631,1.74,19.91,2 
SCCF RECON,ioos:station:SCCF:11:1,2011-03-11T11:00:00Z,26.4679,-82.0631,1.74,19.77,2 
SCCF RECON,ioos:station:SCCF:11:1,2011-03-11T12:00:00Z,26.4679,-82.0631,1.74,19.64,2 
SCCF RECON,ioos:station:SCCF:11:1,2011-03-11T13:00:00Z,26.4679,-82.0631,1.74,19.57,2 
SCCF RECON,ioos:station:SCCF:11:1,2011-03-11T14:00:00Z,26.4679,-82.0631,1.74,19.39,2 
SCCF RECON,ioos:station:SCCF:11:1,2011-03-11T15:00:00Z,26.4679,-82.0631,1.74,19.33,2 
SCCF RECON,ioos:station:SCCF:11:1,2011-03-11T16:00:00Z,26.4679,-82.0631,1.74,19.62,2 
SCCF RECON,ioos:station:SCCF:11:1,2011-03-11T17:00:00Z,26.4679,-82.0631,1.74,20.06,2 
SCCF RECON,ioos:station:SCCF:11:1,2011-03-11T18:00:00Z,26.4679,-82.0631,1.74,20.48,2 
SCCF RECON,ioos:station:SCCF:11:1,2011-03-11T19:00:00Z,26.4679,-82.0631,1.74,20.62,2 
SCCF RECON,ioos:station:SCCF:11:1,2011-03-11T20:00:00Z,26.4679,-82.0631,1.74,20.69,2 
SCCF RECON,ioos:station:SCCF:11:1,2011-03-11T21:00:00Z,26.4679,-82.0631,1.74,20.65,2 
SCCF RECON,ioos:station:SCCF:11:1,2011-03-11T22:00:00Z,26.4679,-82.0631,1.74,20.69,2 
SCCF RECON,ioos:station:SCCF:11:1,2011-03-11T23:00:00Z,26.4679,-82.0631,1.74,20.48,2 
SCCF RECON,ioos:station:SCCF:11:1,2011-03-12T00:00:00Z,26.4679,-82.0631,1.74,20.28,2 
SCCF RECON,ioos:station:SCCF:11:1,2011-03-12T01:00:00Z,26.4679,-82.0631,1.74,20.17,2 
SCCF RECON,ioos:station:SCCF:11:1,2011-03-12T02:00:00Z,26.4679,-82.0631,1.74,19.77,2 
SCCF RECON,ioos:station:SCCF:11:1,2011-03-12T03:00:00Z,26.4679,-82.0631,1.74,19.45,2 
SCCF RECON,ioos:station:SCCF:11:1,2011-03-12T04:00:00Z,26.4679,-82.0631,1.74,19.25,2 
SCCF RECON,ioos:station:SCCF:11:1,2011-03-12T05:00:00Z,26.4679,-82.0631,1.74,18.98,2 
SCCF RECON,ioos:station:SCCF:11:1,2011-03-12T06:00:00Z,26.4679,-82.0631,1.74,18.59,2 
SCCF RECON,ioos:station:SCCF:11:1,2011-03-12T07:00:00Z,26.4679,-82.0631,1.74,18.45,2 
SCCF RECON,ioos:station:SCCF:11:1,2011-03-12T08:00:00Z,26.4679,-82.0631,1.74,18.26,2 
SCCF RECON,ioos:station:SCCF:11:1,2011-03-12T09:00:00Z,26.4679,-82.0631,1.74,18.16,2 
SCCF RECON,ioos:station:SCCF:11:1,2011-03-12T10:00:00Z,26.4679,-82.0631,1.74,18.19,2 
SCCF RECON,ioos:station:SCCF:11:1,2011-03-12T11:00:00Z,26.4679,-82.0631,1.74,18.16,2 
SCCF RECON,ioos:station:SCCF:11:1,2011-03-12T12:00:00Z,26.4679,-82.0631,1.74,18.02,2 
SCCF RECON,ioos:station:SCCF:11:1,2011-03-12T13:00:00Z,26.4679,-82.0631,1.74,17.91,2 
SCCF RECON,ioos:station:SCCF:11:1,2011-03-12T14:00:00Z,26.4679,-82.0631,1.74,17.81,2 
SCCF RECON,ioos:station:SCCF:11:1,2011-03-12T15:00:00Z,26.4679,-82.0631,1.74,17.91,2 
SCCF RECON,ioos:station:SCCF:11:1,2011-03-12T16:00:00Z,26.4679,-82.0631,1.74,18.12,2 
SCCF RECON,ioos:station:SCCF:11:1,2011-03-12T17:00:00Z,26.4679,-82.0631,1.74,18.78,2 
SCCF RECON,ioos:station:SCCF:11:1,2011-03-12T18:00:00Z,26.4679,-82.0631,1.74,18.91,2 
SCCF RECON,ioos:station:SCCF:11:1,2011-03-12T19:00:00Z,26.4679,-82.0631,1.74,19.21,2 
SCCF RECON,ioos:station:SCCF:11:1,2011-03-12T20:00:00Z,26.4679,-82.0631,1.74,19.75,2 
SCCF RECON,ioos:station:SCCF:11:1,2011-03-12T21:00:00Z,26.4679,-82.0631,1.74,19.89,2 
SCCF RECON,ioos:station:SCCF:11:1,2011-03-12T22:00:00Z,26.4679,-82.0631,1.74,19.65,2 
SCCF RECON,ioos:station:SCCF:11:1,2011-03-12T23:00:00Z,26.4679,-82.0631,1.74,20.0,2 
SCCF RECON,ioos:station:SCCF:11:1,2011-03-13T00:00:00Z,26.4679,-82.0631,1.74,19.93,2 
SCCF RECON,ioos:station:SCCF:11:1,2011-03-13T01:00:00Z,26.4679,-82.0631,1.74,19.73,2 
SCCF RECON,ioos:station:SCCF:11:1,2011-03-13T02:00:00Z,26.4679,-82.0631,1.74,19.38,2 
SCCF RECON,ioos:station:SCCF:11:1,2011-03-13T03:00:00Z,26.4679,-82.0631,1.74,19.3,2 
SCCF RECON,ioos:station:SCCF:11:1,2011-03-13T04:00:00Z,26.4679,-82.0631,1.74,19.07,2 
SCCF RECON,ioos:station:SCCF:11:1,2011-03-13T05:00:00Z,26.4679,-82.0631,1.74,19.0,2 
SCCF RECON,ioos:station:SCCF:11:1,2011-03-13T06:00:00Z,26.4679,-82.0631,1.74,18.67,2 
SCCF RECON,ioos:station:SCCF:11:1,2011-03-13T07:00:00Z,26.4679,-82.0631,1.74,18.54,2 
SCCF RECON,ioos:station:SCCF:11:1,2011-03-13T08:00:00Z,26.4679,-82.0631,1.74,18.52,2 
SCCF RECON,ioos:station:SCCF:11:1,2011-03-13T09:00:00Z,26.4679,-82.0631,1.74,18.49,2 
SCCF RECON,ioos:station:SCCF:11:1,2011-03-13T10:00:00Z,26.4679,-82.0631,1.74,18.31,2 
SCCF RECON,ioos:station:SCCF:11:1,2011-03-13T11:00:00Z,26.4679,-82.0631,1.74,18.4,2 
SCCF RECON,ioos:station:SCCF:11:1,2011-03-13T12:00:00Z,26.4679,-82.0631,1.74,18.53,2 
SCCF RECON,ioos:station:SCCF:11:1,2011-03-13T13:00:00Z,26.4679,-82.0631,1.74,18.68,2 
SCCF RECON,ioos:station:SCCF:11:1,2011-03-13T14:00:00Z,26.4679,-82.0631,1.74,18.78,2 
SCCF RECON,ioos:station:SCCF:11:1,2011-03-13T15:00:00Z,26.4679,-82.0631,1.74,18.9,2 
SCCF RECON,ioos:station:SCCF:11:1,2011-03-13T16:00:00Z,26.4679,-82.0631,1.74,19.0,2 
SCCF RECON,ioos:station:SCCF:11:1,2011-03-13T17:00:00Z,26.4679,-82.0631,1.74,19.22,2 
SCCF RECON,ioos:station:SCCF:11:1,2011-03-13T18:00:00Z,26.4679,-82.0631,1.74,19.54,2 
SCCF RECON,ioos:station:SCCF:11:1,2011-03-13T19:00:00Z,26.4679,-82.0631,1.74,19.87,2 
SCCF RECON,ioos:station:SCCF:11:1,2011-03-13T20:00:00Z,26.4679,-82.0631,1.74,20.63,2 
SCCF RECON,ioos:station:SCCF:11:1,2011-03-13T21:00:00Z,26.4679,-82.0631,1.74,21.0,2 
SCCF RECON,ioos:station:SCCF:11:1,2011-03-13T22:00:00Z,26.4679,-82.0631,1.74,20.6,2 
SCCF RECON,ioos:station:SCCF:11:1,2011-03-13T23:00:00Z,26.4679,-82.0631,1.74,20.6,2 
SCCF RECON,ioos:station:SCCF:11:1,2011-03-14T00:00:00Z,26.4679,-82.0631,1.74,20.5,2 
SCCF RECON,ioos:station:SCCF:11:1,2011-03-14T01:00:00Z,26.4679,-82.0631,1.74,20.77,2 
SCCF RECON,ioos:station:SCCF:11:1,2011-03-14T02:00:00Z,26.4679,-82.0631,1.74,20.54,2 
SCCF RECON,ioos:station:SCCF:11:1,2011-03-14T03:00:00Z,26.4679,-82.0631,1.74,20.2,2 
SCCF RECON,ioos:station:SCCF:11:1,2011-03-14T04:00:00Z,26.4679,-82.0631,1.74,20.2,2 
SCCF RECON,ioos:station:SCCF:11:1,2011-03-14T05:00:00Z,26.4679,-82.0631,1.74,20.1,2 
SCCF RECON,ioos:station:SCCF:11:1,2011-03-14T06:00:00Z,26.4679,-82.0631,1.74,19.97,2 
SCCF RECON,ioos:station:SCCF:11:1,2011-03-14T07:00:00Z,26.4679,-82.0631,1.74,19.79,2 
SCCF RECON,ioos:station:SCCF:11:1,2011-03-14T08:00:00Z,26.4679,-82.0631,1.74,19.68,2 
SCCF RECON,ioos:station:SCCF:11:1,2011-03-14T09:00:00Z,26.4679,-82.0631,1.74,19.54,2 
SCCF RECON,ioos:station:SCCF:11:1,2011-03-14T10:00:00Z,26.4679,-82.0631,1.74,19.48,2 
SCCF RECON,ioos:station:SCCF:11:1,2011-03-14T11:00:00Z,26.4679,-82.0631,1.74,19.5,2 
SCCF RECON,ioos:station:SCCF:11:1,2011-03-14T12:00:00Z,26.4679,-82.0631,1.74,19.14,2 
SCCF RECON,ioos:station:SCCF:11:1,2011-03-14T13:00:00Z,26.4679,-82.0631,1.74,19.07,2 
SCCF RECON,ioos:station:SCCF:11:1,2011-03-14T14:00:00Z,26.4679,-82.0631,1.74,19.34,2 
SCCF RECON,ioos:station:SCCF:11:1,2011-03-14T15:00:00Z,26.4679,-82.0631,1.74,19.6,2 
SCCF RECON,ioos:station:SCCF:11:1,2011-03-14T16:00:00Z,26.4679,-82.0631,1.74,19.75,2 
SCCF RECON,ioos:station:SCCF:11:1,2011-03-14T17:00:00Z,26.4679,-82.0631,1.74,19.87,2 
SCCF RECON,ioos:station:SCCF:11:1,2011-03-14T18:00:00Z,26.4679,-82.0631,1.74,19.78,2 
SCCF RECON,ioos:station:SCCF:11:1,2011-03-14T19:00:00Z,26.4679,-82.0631,1.74,19.94,2 
SCCF RECON,ioos:station:SCCF:11:1,2011-03-14T20:00:00Z,26.4679,-82.0631,1.74,20.95,2 
SCCF RECON,ioos:station:SCCF:11:1,2011-03-14T21:00:00Z,26.4679,-82.0631,1.74,21.25,2 
SCCF RECON,ioos:station:SCCF:11:1,2011-03-14T22:00:00Z,26.4679,-82.0631,1.74,21.42,2 
SCCF RECON,ioos:station:SCCF:11:1,2011-03-14T23:00:00Z,26.4679,-82.0631,1.74,21.01,2 
SCCF RECON,ioos:station:SCCF:11:1,2011-03-15T00:00:00Z,26.4679,-82.0631,1.74,20.68,2 
SCCF RECON,ioos:station:SCCF:11:1,2011-03-15T01:00:00Z,26.4679,-82.0631,1.74,20.5,2 
SCCF RECON,ioos:station:SCCF:11:1,2011-03-15T02:00:00Z,26.4679,-82.0631,1.74,20.36,2 
SCCF RECON,ioos:station:SCCF:11:1,2011-03-15T03:00:00Z,26.4679,-82.0631,1.74,21.01,2 
SCCF RECON,ioos:station:SCCF:11:1,2011-03-15T04:00:00Z,26.4679,-82.0631,1.74,20.8,2 
SCCF RECON,ioos:station:SCCF:11:1,2011-03-15T05:00:00Z,26.4679,-82.0631,1.74,20.84,2 
SCCF RECON,ioos:station:SCCF:11:1,2011-03-15T06:00:00Z,26.4679,-82.0631,1.74,20.9,2 
SCCF RECON,ioos:station:SCCF:11:1,2011-03-15T07:00:00Z,26.4679,-82.0631,1.74,20.82,2 
SCCF RECON,ioos:station:SCCF:11:1,2011-03-15T08:00:00Z,26.4679,-82.0631,1.74,20.74,2 
SCCF RECON,ioos:station:SCCF:11:1,2011-03-15T09:00:00Z,26.4679,-82.0631,1.74,20.65,2 
SCCF RECON,ioos:station:SCCF:11:1,2011-03-15T10:00:00Z,26.4679,-82.0631,1.74,20.55,2 
SCCF RECON,ioos:station:SCCF:11:1,2011-03-15T11:00:00Z,26.4679,-82.0631,1.74,20.38,2 
SCCF RECON,ioos:station:SCCF:11:1,2011-03-15T12:00:00Z,26.4679,-82.0631,1.74,20.07,2 
SCCF RECON,ioos:station:SCCF:11:1,2011-03-15T13:00:00Z,26.4679,-82.0631,1.74,19.91,2 
SCCF RECON,ioos:station:SCCF:11:1,2011-03-15T14:00:00Z,26.4679,-82.0631,1.74,20.08,2 
SCCF RECON,ioos:station:SCCF:11:1,2011-03-15T15:00:00Z,26.4679,-82.0631,1.74,20.27,2 
SCCF RECON,ioos:station:SCCF:11:1,2011-03-15T16:00:00Z,26.4679,-82.0631,1.74,20.5,2 
SCCF RECON,ioos:station:SCCF:11:1,2011-03-15T17:00:00Z,26.4679,-82.0631,1.74,20.53,2 
SCCF RECON,ioos:station:SCCF:11:1,2011-03-15T18:00:00Z,26.4679,-82.0631,1.74,20.78,2 
SCCF RECON,ioos:station:SCCF:11:1,2011-03-15T19:00:00Z,26.4679,-82.0631,1.74,21.65,2 
SCCF RECON,ioos:station:SCCF:11:1,2011-03-15T20:00:00Z,26.4679,-82.0631,1.74,22.29,2 
SCCF RECON,ioos:station:SCCF:11:1,2011-03-15T21:00:00Z,26.4679,-82.0631,1.74,22.32,2 
SCCF RECON,ioos:station:SCCF:11:1,2011-03-15T22:00:00Z,26.4679,-82.0631,1.74,22.09,2 
SCCF RECON,ioos:station:SCCF:11:1,2011-03-15T23:00:00Z,26.4679,-82.0631,1.74,22.12,2 
SCCF RECON,ioos:station:SCCF:11:1,2011-03-16T00:00:00Z,26.4679,-82.0631,1.74,21.52,2 
SCCF RECON,ioos:station:SCCF:11:1,2011-03-16T01:00:00Z,26.4679,-82.0631,1.74,21.36,2 
SCCF RECON,ioos:station:SCCF:11:1,2011-03-16T02:00:00Z,26.4679,-82.0631,1.74,21.84,2 
SCCF RECON,ioos:station:SCCF:11:1,2011-03-16T03:00:00Z,26.4679,-82.0631,1.74,21.63,2 
SCCF RECON,ioos:station:SCCF:11:1,2011-03-16T04:00:00Z,26.4679,-82.0631,1.74,21.54,2 
SCCF RECON,ioos:station:SCCF:11:1,2011-03-16T05:00:00Z,26.4679,-82.0631,1.74,21.55,2 
SCCF RECON,ioos:station:SCCF:11:1,2011-03-16T06:00:00Z,26.4679,-82.0631,1.74,21.76,2 
SCCF RECON,ioos:station:SCCF:11:1,2011-03-16T07:00:00Z,26.4679,-82.0631,1.74,21.69,2 
SCCF RECON,ioos:station:SCCF:11:1,2011-03-16T08:00:00Z,26.4679,-82.0631,1.74,21.65,2 
SCCF RECON,ioos:station:SCCF:11:1,2011-03-16T09:00:00Z,26.4679,-82.0631,1.74,21.66,2 